Regional Weather Roundup
Issued by NWS Burlington, VT

Home | Current Version | Previous Version | Text Only | Print | Product List | Glossary On
Versions: 1 2 3 4 5 6 7 8 9 10 11 12 13 14 15 16 17 18 19 20 21 22 23 24 25 26 27 28 29 30 31 32 33 34 35 36 37 38 39 40 41 42 43 44 45 46 47 48 49 50
640
ASUS41 KBTV 262310
RWRBTV
VERMONT REGIONAL WEATHER ROUNDUP
NATIONAL WEATHER SERVICE BURLINGTON VT
700 PM EDT THU MAY 26 2016

NOTE: "FAIR" INDICATES FEW OR NO CLOUDS BELOW 12,000 FEET WITH NO
SIGNIFICANT WEATHER AND/OR OBSTRUCTIONS TO VISIBILITY.

* THESE REPORTS ARE NOT UNDER NWS QUALITY CONTROL AND/OR DO NOT
  REPORT WEATHER SUCH AS PRECIPITATION AND FOG.

VTZ001>019-270000-
_____VERMONT_____


CITY           SKY/WX    TMP DP  RH WIND       PRES   REMARKS
BURLINGTON     PTSUNNY   77  47  34 N6        30.03S
MONTPELIER     FAIR      77  51  40 CALM      30.10S
MORRISVILLE    PTSUNNY   79  49  34 CALM      30.06S
ST. JOHNSBURY*   N/A     79  46  31 MISG      30.04S
LYNDONVILLE*   FAIR      76  47  36 CALM      30.09S
RUTLAND*       FAIR      79  61  53 E6        30.03F
SPRINGFIELD    FAIR      79  62  56 CALM      30.03S
HIGHGATE*      FAIR      74  48  39 N5        30.03F
NEWPORT*       FAIR      72  46  40 CALM      30.08S
BENNINGTON     FAIR      81  58  45 CALM      30.03F
SUTTON*          N/A     73 N/A N/A MISG        N/A

_____LAKE CHAMPLAIN_____


CITY           SKY/WX    TMP DP  RH WIND       PRES   REMARKS
BURTON ISLAND*   N/A     72  54  53 NW1         N/A
COLCHESTER RF*   N/A     68  50  52 N6          N/A
DIAMOND ISL*     N/A     72  50  46 N8          N/A

$$

NYZ007-026>031-035-052-083-087-270000-
_____NORTHERN NEW YORK_____


CITY           SKY/WX    TMP DP  RH WIND       PRES   REMARKS
PLATTSBURGH    CLOUDY    73  46  38 N3        30.03F
SARANAC LAKE   MOSUNNY   71  52  50 NE9       30.05F
MASSENA        CLOUDY    74  48  39 NE9       30.00F
OGDENSBURG*    SUNNY     75  57  53 E5        29.97F
POTSDAM*       SUNNY     75  59  57 E3        29.98F
WATERTOWN      CLOUDY    78  63  59 W3        29.96F
ALBANY         CLOUDY    84  53  34 S5        30.00F
GLENS FALLS    PTSUNNY   84  56  38 S7        29.99F

$$
NHZ002-005-011-270000-
_____NEW HAMPSHIRE_____


CITY           SKY/WX    TMP DP  RH WIND       PRES   REMARKS
LEBANON        CLOUDY    77  64  64 SE3       30.02S
MT WASHINGTON  PTSUNNY   54  36  50 SW18        N/A
PLYMOUTH       FAIR      79  57  47 CALM      30.03S
WHITEFIELD     CLOUDY    79  42  26 CALM      30.07S

$$

_____REGIONAL QUEBEC LOCATIONS_____


CITY           SKY/WX    TMP DP  RH WIND       PRES   REMARKS
MONTREAL       CLOUDY    73  34  23 E8        30.03S
QUEBEC CITY    PTSUNNY   64  45  48 E9        30.11R
SHERBROOKE     SUNNY     70  45  40 NE2       30.07S

_____REGIONAL ONTARIO LOCATIONS_____


CITY           SKY/WX    TMP DP  RH WIND       PRES   REMARKS
OTTAWA         LGT RAIN  73  50  43 E8        29.99F

______KEY______
VSB  - VISIBILITY IN MILES
WCI  - WIND CHILL INDEX
HX   - HEAT INDEX
$$
NNNN




USA.gov is the U.S. government's official web portal to all federal, state and local government web resources and services.